FW0394 Weather Reports


Display with metric or nautical units.
time (UTC)temp
F
wind
direction
speed
MPH
gust
MPH
rain 1hr
in
rain 24hr
in
rain mn
in
humidity
%
barometer
mb
20260902120504 75 35 0.0 2.0 0.00 0.01 0.01 70 1011.6
20260902120214 75 35 0.0 2.0 0.00 0.01 0.01 69 1011.6
20260902115503 75 35 0.0 2.0 0.00 0.01 0.01 69 1011.5
20260902115008 76 34 0.0 3.0 0.00 0.01 0.01 68 1011.5
20260902114503 76 34 1.0 3.0 0.00 0.01 0.01 68 1011.4
20260902114004 76 34 2.0 4.0 0.00 0.01 0.01 68 1011.5
20260902113504 76 33 2.0 4.0 0.01 0.01 0.01 68 1011.4
20260902113003 76 32 2.0 4.0 0.01 0.01 0.01 69 1011.4
20260902112503 75 31 2.0 4.0 0.01 0.01 0.01 69 1011.4
20260902112003 75 30 1.0 4.0 0.01 0.01 0.01 70 1011.4
20260902111713 74 30 0.0 4.0 0.01 0.01 0.01 71 1011.4
20260902111003 74 0 0.0 0.0 0.01 0.01 0.01 72 1011.4
20260902110503 74 0 0.0 0.0 0.01 0.01 0.01 72 1011.4
20260902110006 74 0 0.0 0.0 0.01 0.01 0.01 71 1011.4
20260902105503 75 0 0.0 0.0 0.01 0.01 0.01 71 1011.5
20260902105003 75 0 0.0 0.0 0.01 0.01 0.01 71 1011.5
20260902104713 75 0 0.0 0.0 0.01 0.01 0.01 70 1011.4
20260902104214 75 0 0.0 0.0 0.01 0.01 0.01 69 1011.5
20260902103503 75 0 0.0 0.0 0.00 0.00 0.00 70 1011.5
20260902103003 75 0 0.0 0.0 0.00 0.00 0.00 69 1011.6
20260902102713 75 0 0.0 0.0 0.00 0.00 0.00 71 1011.6
20260902102003 75 0 0.0 0.0 0.00 0.00 0.00 69 1011.6
20260902101503 75 0 0.0 0.0 0.00 0.00 0.00 71 1011.7
20260902101003 75 0 0.0 0.0 0.00 0.00 0.00 70 1011.7
20260902100503 75 0 0.0 0.0 0.00 0.00 0.00 72 1011.9
20260902100003 75 0 0.0 0.0 0.00 0.00 0.00 72 1011.8
20260902095504 76 0 0.0 1.0 0.00 0.00 0.00 71 1011.7
20260902095003 76 82 1.0 2.0 0.00 0.00 0.00 72 1011.7
20260902094503 75 73 1.0 3.0 0.00 0.00 0.00 72 1011.8
20260902094214 75 67 1.0 3.0 0.00 0.00 0.00 72 1011.9
20260902093503 76 55 0.0 2.0 0.00 0.00 0.00 72 1011.9
20260902093003 76 55 1.0 4.0 0.00 0.00 0.00 72 1011.9
20260902092712 76 58 1.0 4.0 0.00 0.00 0.00 71 1011.9
20260902092213 76 69 1.0 4.0 0.00 0.00 0.00 70 1011.9
20260902091504 76 104 2.0 4.0 0.00 0.00 0.00 70 1011.8
20260902091213 77 125 1.0 3.0 0.00 0.00 0.00 69 1011.9
20260902090503 77 134 1.0 3.0 0.00 0.00 0.00 68 1011.9
20260902090004 78 139 1.0 3.0 0.00 0.00 0.00 67 1011.9
20260902085503 78 168 1.0 4.0 0.00 0.00 0.00 66 1011.8
20260902085003 78 196 2.0 8.0 0.00 0.00 0.00 65 1011.7
20260902084504 78 69 2.0 8.0 0.00 0.00 0.00 65 1011.9
20260902084003 78 44 3.0 6.0 0.00 0.00 0.00 66 1011.9
20260902083504 78 47 3.0 6.0 0.00 0.00 0.00 65 1012.1
20260902083003 78 49 3.0 10.0 0.00 0.00 0.00 64 1012.2
20260902082503 78 63 3.0 10.0 0.00 0.00 0.00 64 1012.0
20260902082003 78 69 2.0 9.0 0.00 0.00 0.00 68 1012.1
20260902081503 78 38 2.0 9.0 0.00 0.00 0.00 67 1011.8
20260902081003 78 347 2.0 5.0 0.00 0.00 0.00 66 1011.9
20260902080503 78 260 1.0 3.0 0.00 0.00 0.00 65 1011.9
20260902080003 78 206 0.0 3.0 0.00 0.00 0.00 65 1011.5
20260902075503 78 187 1.0 3.0 0.00 0.00 0.00 63 1011.3
20260902075003 78 191 1.0 5.0 0.00 0.00 0.00 63 1011.2
20260902074503 79 197 2.0 7.0 0.00 0.00 0.00 63 1011.1
20260902074003 79 207 3.0 7.0 0.00 0.00 0.00 63 1011.1
20260902073503 79 209 3.0 7.0 0.00 0.00 0.00 63 1011.1
20260902073004 79 199 2.0 6.0 0.00 0.00 0.00 63 1011.0
20260902072714 79 194 2.0 6.0 0.00 0.00 0.00 63 1011.1
20260902072003 79 207 3.0 7.0 0.00 0.00 0.00 62 1011.1
20260902071503 79 219 2.0 5.0 0.00 0.00 0.00 62 1011.1
20260902071003 80 227 3.0 6.0 0.00 0.00 0.00 62 1011.1
20260902070504 80 221 3.0 8.0 0.00 0.00 0.00 61 1011.1
20260902070005 80 215 3.0 8.0 0.00 0.00 0.00 61 1011.1
20260902065714 80 209 3.0 8.0 0.00 0.00 0.00 61 1011.2
20260902065003 80 206 3.0 9.0 0.00 0.00 0.00 61 1011.2
20260902064503 81 206 3.0 9.0 0.00 0.00 0.00 60 1011.2
20260902064003 81 204 3.0 7.0 0.00 0.00 0.00 60 1011.2
20260902063503 81 202 3.0 9.0 0.00 0.00 0.00 59 1011.2
20260902063003 81 197 4.0 11.0 0.00 0.00 0.00 59 1011.1
20260902062503 81 193 5.0 12.0 0.00 0.00 0.00 59 1011.1
20260902062008 81 186 4.0 12.0 0.00 0.00 0.00 59 1010.9
20260902061503 81 188 3.0 10.0 0.00 0.00 0.00 59 1010.9
20260902061003 82 196 4.0 10.0 0.00 0.00 0.00 59 1010.8
20260902060503 82 197 5.0 10.0 0.00 0.00 0.00 59 1010.8
20260902060003 82 196 3.0 10.0 0.00 0.00 0.00 59 1010.7
20260902055713 82 197 3.0 8.0 0.00 0.00 0.00 59 1010.7
20260902055004 82 204 3.0 8.0 0.00 0.00 0.00 60 1010.7
20260902054503 82 213 3.0 6.0 0.00 0.00 0.00 60 1010.7
20260902054003 82 208 3.0 8.0 0.00 0.00 0.00 59 1010.8
20260902053503 82 210 3.0 8.0 0.00 0.00 0.00 59 1010.8
20260902053003 82 207 3.0 6.0 0.00 0.00 0.00 59 1010.8
20260902052713 83 199 3.0 7.0 0.00 0.00 0.00 59 1010.8
20260902052003 83 184 3.0 8.0 0.00 0.00 0.00 58 1010.9
20260902051503 83 187 4.0 9.0 0.00 0.00 0.00 58 1010.9
20260902051003 83 181 4.0 10.0 0.00 0.00 0.00 58 1011.0
20260902050713 83 180 4.0 10.0 0.00 0.00 0.00 58 1010.9
20260902050007 83 185 4.0 9.0 0.00 0.00 0.00 58 1010.9
20260902045503 83 181 4.0 11.0 0.00 0.00 0.00 58 1011.0
20260902045003 84 177 4.0 11.0 0.00 0.00 0.00 58 1011.0
20260902044503 84 180 4.0 11.0 0.00 0.00 0.00 58 1010.9
20260902044003 84 181 4.0 10.0 0.00 0.00 0.00 58 1010.9
20260902043503 84 184 4.0 7.0 0.00 0.00 0.00 58 1011.0
20260902043214 84 181 4.0 10.0 0.00 0.00 0.00 58 1011.0
20260902042503 84 184 4.0 10.0 0.00 0.00 0.00 59 1011.0
20260902042213 84 184 3.0 9.0 0.00 0.00 0.00 59 1010.9
20260902041504 84 179 4.0 10.0 0.00 0.00 0.00 59 1010.9
20260902041003 84 177 4.0 9.0 0.00 0.00 0.00 59 1010.9
20260902040503 84 174 4.0 9.0 0.00 0.00 0.00 60 1011.0
20260902040003 84 178 4.0 9.0 0.00 0.00 0.00 60 1011.1
20260902035503 84 182 4.0 9.0 0.00 0.00 0.00 60 1010.9
20260902035004 84 181 3.0 7.0 0.00 0.00 0.00 61 1011.1
20260902034503 84 183 3.0 8.0 0.00 0.00 0.00 61 1011.0
20260902034003 84 182 3.0 8.0 0.00 0.00 0.00 61 1010.9
20260902033504 84 178 3.0 9.0 0.00 0.00 0.00 61 1011.0
20260902033003 84 177 3.0 9.0 0.00 0.00 0.00 61 1011.0
20260902032504 84 178 3.0 7.0 0.00 0.00 0.00 61 1011.0
20260902032003 85 172 3.0 7.0 0.00 0.00 0.00 61 1010.9
20260902031714 85 166 3.0 7.0 0.00 0.00 0.00 61 1010.9
20260902031003 85 148 2.0 7.0 0.00 0.00 0.00 61 1010.8
20260902030503 85 160 2.0 6.0 0.00 0.00 0.00 61 1010.8
20260902030003 85 169 3.0 6.0 0.00 0.00 0.00 60 1010.7
20260902025503 86 168 2.0 7.0 0.00 0.00 0.00 60 1010.7
20260902025004 86 162 2.0 7.0 0.00 0.00 0.00 60 1010.6
20260902024503 86 151 2.0 7.0 0.00 0.00 0.00 60 1010.6
20260902024213 86 150 2.0 7.0 0.00 0.00 0.00 60 1010.6
20260902023503 86 166 2.0 7.0 0.00 0.00 0.00 60 1010.5
20260902023003 86 168 2.0 7.0 0.00 0.00 0.00 60 1010.5
20260902022503 86 154 2.0 7.0 0.00 0.00 0.00 60 1010.4
20260902022003 86 157 2.0 7.0 0.00 0.00 0.00 60 1010.3
20260902021503 87 164 2.0 5.0 0.00 0.00 0.00 60 1010.3
20260902021003 87 167 3.0 5.0 0.00 0.00 0.00 60 1010.2
20260902020503 87 172 2.0 5.0 0.00 0.00 0.00 60 1010.1
20260902020003 87 159 1.0 5.0 0.00 0.00 0.00 60 1010.2
20260902015503 87 154 2.0 5.0 0.00 0.00 0.00 60 1010.1
20260902015003 88 160 2.0 6.0 0.00 0.00 0.00 60 1010.1
20260902014504 88 157 2.0 7.0 0.00 0.00 0.00 60 1010.0
20260902014213 88 157 3.0 7.0 0.00 0.00 0.00 59 1009.9
20260902013503 88 165 2.0 5.0 0.00 0.00 0.00 59 1009.7
20260902013003 88 167 2.0 6.0 0.00 0.00 0.00 59 1009.7
20260902012503 89 170 2.0 6.0 0.00 0.00 0.00 59 1009.6
20260902012003 89 172 1.0 5.0 0.00 0.00 0.00 58 1009.6
20260902011713 89 173 0.0 4.0 0.00 0.00 0.00 58 1009.6
20260902011003 89 175 0.0 4.0 0.00 0.00 0.00 58 1009.6
20260902010503 89 179 1.0 6.0 0.00 0.00 0.00 58 1009.6
20260902010003 90 176 2.0 6.0 0.00 0.00 0.00 57 1009.5
20260902005503 90 168 2.0 6.0 0.00 0.00 0.00 56 1009.5
20260902005003 90 169 2.0 6.0 0.00 0.00 0.00 56 1009.6
20260902004713 90 169 2.0 6.0 0.00 0.00 0.00 55 1009.5
20260902004214 91 170 2.0 6.0 0.00 0.00 0.00 54 1009.5
20260902003503 91 169 3.0 7.0 0.00 0.00 0.00 54 1009.5
20260902003003 92 170 3.0 7.0 0.00 0.00 0.00 53 1009.5
20260902002503 92 167 3.0 9.0 0.00 0.00 0.00 52 1009.5
20260902002003 92 175 3.0 9.0 0.00 0.00 0.00 52 1009.5
20260902001713 93 181 4.0 10.0 0.00 0.00 0.00 51 1009.6
20260902001214 93 184 4.0 10.0 0.00 0.00 0.00 51 1009.5
20260902000503 93 173 5.0 10.0 0.00 0.00 0.00 50 1009.6
20260902000003 93 182 4.0 12.0 0.00 0.00 0.00 49 1009.6
20260901235503 94 193 3.0 12.0 0.00 0.00 0.00 49 1009.6
20260901235214 94 198 3.0 8.0 0.00 0.00 0.00 50 1009.6
20260901234503 94 210 2.0 7.0 0.00 0.00 0.00 51 1009.7
20260901234003 94 203 3.0 9.0 0.00 0.00 0.00 51 1009.8
20260901233505 94 203 3.0 9.0 0.00 0.00 0.00 52 1010.0
20260901233003 94 219 4.0 9.0 0.00 0.00 0.00 51 1010.0
20260901232503 94 221 4.0 11.0 0.00 0.00 0.00 50 1009.9
20260901232213 94 220 4.0 11.0 0.00 0.00 0.00 51 1009.9
20260901231503 95 210 4.0 11.0 0.00 0.00 0.00 49 1009.9
20260901231213 95 209 4.0 11.0 0.00 0.00 0.00 50 1009.9
20260901230503 95 204 4.0 10.0 0.00 0.00 0.00 51 1009.9
20260901230004 95 200 4.0 10.0 0.00 0.00 0.00 51 1010.0
20260901225503 95 197 4.0 11.0 0.00 0.00 0.00 52 1010.1
20260901225003 95 201 4.0 11.0 0.00 0.00 0.00 51 1010.1
20260901224503 96 208 4.0 11.0 0.00 0.00 0.00 52 1010.1
20260901224003 96 210 5.0 11.0 0.00 0.00 0.00 50 1010.2
20260901223503 96 218 5.0 16.0 0.00 0.00 0.00 50 1010.2
20260901223213 96 218 5.0 16.0 0.00 0.00 0.00 50 1010.2
20260901222504 96 209 5.0 12.0 0.00 0.00 0.00 49 1010.2
20260901222213 96 213 4.0 12.0 0.00 0.00 0.00 49 1010.2
20260901221503 96 210 6.0 16.0 0.00 0.00 0.00 49 1010.2
20260901221003 96 199 5.0 11.0 0.00 0.00 0.00 48 1010.3
20260901220714 96 191 6.0 14.0 0.00 0.00 0.00 48 1010.3
20260901220003 96 188 6.0 20.0 0.00 0.00 0.00 47 1010.4
20260901215714 96 194 5.0 20.0 0.00 0.00 0.00 47 1010.4
20260901215003 96 192 5.0 12.0 0.00 0.00 0.00 50 1010.4
20260901214503 96 203 4.0 10.0 0.00 0.00 0.00 50 1010.4
20260901214003 96 206 5.0 13.0 0.00 0.00 0.00 50 1010.5
20260901213503 96 202 6.0 13.0 0.00 0.00 0.00 49 1010.5
20260901213003 96 201 5.0 13.0 0.00 0.00 0.00 48 1010.5
20260901212503 96 197 5.0 13.0 0.00 0.00 0.00 49 1010.6
20260901212004 96 182 5.0 13.0 0.00 0.00 0.00 51 1010.7
20260901211714 95 175 5.0 12.0 0.00 0.00 0.00 51 1010.7
20260901211213 95 176 6.0 13.0 0.00 0.00 0.00 52 1010.7
20260901210503 95 176 7.0 13.0 0.00 0.00 0.00 51 1010.8
20260901210003 95 181 6.0 15.0 0.00 0.00 0.00 52 1010.9
20260901205714 95 179 6.0 15.0 0.00 0.00 0.00 51 1010.9
20260901205003 95 177 6.0 15.0 0.00 0.00 0.00 51 1010.9
20260901204503 95 188 6.0 13.0 0.00 0.00 0.00 50 1011.0
20260901204003 94 193 6.0 13.0 0.00 0.00 0.00 52 1011.1
20260901203503 94 189 6.0 14.0 0.00 0.00 0.00 51 1011.2
20260901203213 94 185 6.0 14.0 0.00 0.00 0.00 52 1011.2
20260901202503 94 182 6.0 15.0 0.00 0.00 0.00 52 1011.3
20260901202213 94 185 6.0 15.0 0.00 0.00 0.00 53 1011.4
20260901201503 94 192 6.0 11.0 0.00 0.00 0.00 52 1011.4
20260901201214 94 188 6.0 15.0 0.00 0.00 0.00 52 1011.4
20260901200503 94 164 6.0 15.0 0.00 0.00 0.00 53 1011.6
20260901200003 93 155 6.0 12.0 0.00 0.00 0.00 53 1011.6
20260901195504 94 155 6.0 13.0 0.00 0.00 0.00 51 1011.6
20260901195003 94 168 5.0 13.0 0.00 0.00 0.00 53 1011.6
20260901194503 93 179 4.0 9.0 0.00 0.00 0.00 55 1011.7
20260901194003 93 172 5.0 13.0 0.00 0.00 0.00 52 1011.8
20260901193503 93 171 5.0 13.0 0.00 0.00 0.00 52 1011.8
20260901193005 93 159 3.0 8.0 0.00 0.00 0.00 55 1011.8
20260901192503 93 149 4.0 11.0 0.00 0.00 0.00 55 1011.8
20260901192003 92 150 6.0 14.0 0.00 0.00 0.00 53 1011.9
20260901191503 92 160 6.0 14.0 0.00 0.00 0.00 52 1011.9
20260901191003 92 153 6.0 13.0 0.00 0.00 0.00 51 1012.1
20260901190503 92 137 6.0 13.0 0.00 0.00 0.00 55 1012.0
20260901190004 92 153 5.0 12.0 0.00 0.00 0.00 51 1012.2
20260901185503 92 160 4.0 11.0 0.00 0.00 0.00 52 1012.1
20260901185003 92 152 4.0 10.0 0.00 0.00 0.00 55 1012.2
20260901184503 91 159 5.0 11.0 0.00 0.00 0.00 55 1012.2
20260901184214 91 156 5.0 11.0 0.00 0.00 0.00 52 1012.2
20260901183503 91 169 5.0 10.0 0.00 0.00 0.00 57 1012.3
20260901183003 91 158 5.0 12.0 0.00 0.00 0.00 55 1012.2
20260901182503 91 147 4.0 12.0 0.00 0.00 0.00 55 1012.2
20260901182214 91 145 4.0 12.0 0.00 0.00 0.00 57 1012.3
20260901181503 90 153 5.0 11.0 0.00 0.00 0.00 54 1012.3
20260901181214 90 157 5.0 10.0 0.00 0.00 0.00 57 1012.4
20260901180504 90 151 5.0 12.0 0.00 0.00 0.00 57 1012.5
20260901180003 90 131 4.0 12.0 0.00 0.00 0.00 53 1012.5
20260901175503 90 145 3.0 10.0 0.00 0.00 0.00 59 1012.5
20260901175003 90 165 3.0 9.0 0.00 0.00 0.00 57 1012.6
20260901174503 89 156 3.0 9.0 0.00 0.00 0.00 57 1012.6
20260901174214 89 144 3.0 8.0 0.00 0.00 0.00 55 1012.7
20260901173503 89 144 4.0 10.0 0.00 0.00 0.00 61 1012.8
20260901173003 89 138 3.0 9.0 0.00 0.00 0.00 57 1012.7
20260901172503 88 130 3.0 8.0 0.00 0.00 0.00 58 1012.7
20260901172213 88 131 3.0 9.0 0.00 0.00 0.00 59 1012.8
20260901171503 88 148 2.0 9.0 0.00 0.00 0.00 60 1012.9
20260901171008 88 154 2.0 8.0 0.00 0.00 0.00 58 1012.9
20260901170503 88 151 4.0 7.0 0.00 0.00 0.00 61 1012.9
20260901170003 87 147 3.0 7.0 0.00 0.00 0.00 61 1012.8
20260901165503 87 143 4.0 8.0 0.00 0.00 0.00 62 1012.8
20260901165003 86 162 4.0 8.0 0.00 0.00 0.00 60 1012.9
20260901164503 86 188 3.0 8.0 0.00 0.00 0.00 60 1012.9
20260901164213 86 189 3.0 8.0 0.00 0.00 0.00 57 1012.9
20260901163712 86 185 3.0 8.0 0.00 0.00 0.00 59 1013.0
20260901163003 86 178 3.0 7.0 0.00 0.00 0.00 58 1012.9
20260901162503 85 188 3.0 8.0 0.00 0.00 0.00 60 1013.1
20260901162003 85 195 3.0 8.0 0.00 0.00 0.00 61 1013.1
20260901161503 85 182 3.0 9.0 0.00 0.00 0.00 61 1013.0
20260901161003 84 173 3.0 9.0 0.00 0.00 0.00 60 1013.1
20260901160503 84 179 3.0 8.0 0.00 0.00 0.00 59 1013.1
20260901160003 84 180 3.0 9.0 0.00 0.00 0.00 60 1013.1
20260901155503 84 181 3.0 9.0 0.00 0.00 0.00 60 1013.1
20260901155004 84 189 3.0 7.0 0.00 0.00 0.00 62 1013.0
20260901154503 83 198 3.0 8.0 0.00 0.00 0.00 62 1012.9
20260901154003 83 198 3.0 8.0 0.00 0.00 0.00 62 1012.9
20260901153714 83 197 3.0 8.0 0.00 0.00 0.00 63 1012.9
20260901153003 82 190 2.0 6.0 0.00 0.00 0.00 64 1012.8
20260901152503 82 181 2.0 5.0 0.00 0.00 0.00 65 1012.9
20260901152004 82 185 2.0 6.0 0.00 0.00 0.00 66 1012.8
20260901151503 82 181 2.0 6.0 0.00 0.00 0.00 65 1012.8
20260901151004 81 188 3.0 6.0 0.00 0.00 0.00 65 1012.9
20260901150503 81 192 3.0 6.0 0.00 0.00 0.00 64 1012.9
20260901150212 81 193 3.0 7.0 0.00 0.00 0.00 65 1012.9
20260901145503 81 193 3.0 7.0 0.00 0.00 0.00 65 1013.0
20260901145004 80 200 3.0 6.0 0.00 0.00 0.00 65 1013.0
20260901144503 80 209 3.0 6.0 0.00 0.00 0.00 66 1013.0
20260901144003 80 203 3.0 10.0 0.00 0.00 0.00 66 1013.0
20260901143503 80 187 3.0 10.0 0.00 0.00 0.00 65 1013.1
20260901143003 79 172 3.0 6.0 0.00 0.00 0.00 67 1013.1
20260901142713 79 172 3.0 5.0 0.00 0.00 0.00 69 1013.1
20260901142003 79 171 2.0 5.0 0.00 0.00 0.00 72 1013.1
20260901141504 78 170 2.0 5.0 0.00 0.00 0.00 73 1013.2
20260901141003 78 167 2.0 6.0 0.00 0.00 0.00 75 1013.3
20260901140504 78 147 2.0 6.0 0.00 0.00 0.00 77 1013.3
20260901140003 78 132 3.0 8.0 0.00 0.00 0.00 77 1013.2
20260901135503 77 133 3.0 8.0 0.00 0.00 0.00 77 1013.2
20260901135003 77 140 3.0 6.0 0.00 0.00 0.00 77 1013.3
20260901134504 77 141 3.0 7.0 0.00 0.00 0.00 78 1013.3
20260901134214 77 136 3.0 7.0 0.00 0.00 0.00 77 1013.3
20260901133503 77 127 2.0 5.0 0.00 0.00 0.00 79 1013.3
20260901133003 76 127 2.0 5.0 0.00 0.00 0.00 80 1013.2
20260901132503 76 125 1.0 4.0 0.00 0.00 0.00 80 1013.3
20260901132003 76 126 2.0 6.0 0.00 0.00 0.00 80 1013.3
20260901131503 76 129 1.0 6.0 0.00 0.00 0.00 80 1013.2
20260901131003 76 131 1.0 5.0 0.00 0.00 0.00 81 1013.2
20260901130503 76 130 2.0 4.0 0.00 0.00 0.00 81 1013.2
20260901130003 76 129 2.0 4.0 0.00 0.00 0.00 82 1013.2
20260901125503 76 129 2.0 4.0 0.00 0.00 0.00 82 1013.2
20260901125003 75 128 2.0 3.0 0.00 0.00 0.00 82 1013.2
20260901124505 75 129 2.0 3.0 0.00 0.00 0.00 82 1013.2
20260901124003 75 133 1.0 3.0 0.00 0.00 0.00 83 1013.1
20260901123503 75 134 1.0 4.0 0.00 0.00 0.00 83 1013.0
20260901123003 75 132 1.0 4.0 0.00 0.00 0.00 83 1013.0
20260901122712 75 131 2.0 4.0 0.00 0.00 0.00 83 1012.9
20260901122003 75 137 2.0 4.0 0.00 0.00 0.00 83 1012.7
20260901121713 75 140 2.0 4.0 0.00 0.00 0.00 83 1012.6
20260901121003 75 142 2.0 4.0 0.00 0.00 0.00 82 1012.6